Location: Zilina
(49.2167°N, 18.7333°E)
Time: 02:43:42
(UTC+01:00)

Daily predictions for brighter satellites

Satellite Brightness Start Highest point End
(mag) Time Altitude Azimuth Time Altitude Azimuth Time Altitude Azimuth
Cosmos 2360 Rocket 4.5 03:34:39 16° NNE 03:35:15 17° NE 03:38:48 10° ENE
Cosmos 1980 Rocket 4.1 03:41:50 23° SE 03:41:50 23° SE 03:43:55 10° SE
Meteor 2-4 Rocket 4.4 04:08:22 48° ESE 04:08:22 48° ESE 04:12:37 10° SSE
ATLAS 5 CENTAUR R/B 4.1 04:09:57 20° NNE 04:09:57 20° NNE 04:13:58 10° ENE
USA 267 3.2 04:10:22 10° ENE 04:16:56 76° SE 04:17:37 69° SSW
SL-16 R/B 2.9 04:17:16 46° NNE 04:18:07 49° NE 04:23:35 10° SE
Meteor 1-11 Rocket 4.2 04:17:41 10° S 04:23:31 63° E 04:29:17 10° NNE
Cosmos 2322 Rocket 2.8 04:22:49 46° NNE 04:23:52 52° NE 04:29:24 10° SE
Cosmos 2344 4.5 04:24:33 44° NW 04:28:52 74° SW 04:42:56 10° SSE
Cosmos 44 Rocket 4.5 04:31:05 33° NNE 04:31:05 33° NNE 04:33:47 10° NE
SKYMED 2 3.8 04:42:34 10° SSE 04:46:17 63° SE 04:46:17 63° SE
Meteor 1-5 Rocket 4.4 04:43:05 10° S 04:48:26 65° E 04:53:43 10° NNE
Timation 2 Rocket 4.4 04:43:05 10° SSW 04:49:54 69° ESE 04:56:43 10° NE
Cosmos 2082 Rocket 2.8 04:51:13 41° NNW 04:51:13 41° NNW 04:55:28 10° NNE
USA 234 3.3 04:47:44 10° SE 04:54:13 63° SW 04:55:47 49° W
Cosmos 1833 Rocket 3.4 04:55:57 37° NNW 04:55:57 37° NNW 04:59:59 10° NNE
Cosmos 44 4.4 04:58:14 28° N 04:58:14 28° N 05:00:41 10° NNE
Cosmos 1092 Rocket 4.2 04:55:51 10° S 05:01:54 68° E 05:08:01 10° NNE
EO 1 Del DPAF 3.9 05:05:21 10° S 05:08:05 44° S 05:08:05 44° S
PAYLOAD A 4.4 05:04:06 10° NNE 05:09:34 72° ESE 05:14:55 10° S
CZ-4B R/B 3.6 05:05:03 10° N 05:09:34 41° NW 05:09:34 41° NW
Okean 1-7 Rocket 4.1 05:06:48 16° N 05:10:23 60° ENE 05:14:53 10° SSE
IRS-1C Rocket 4.3 05:06:31 10° N 05:11:09 47° NW 05:11:09 47° NW
Cosmos 2333 Rocket 4.2 05:08:54 10° N 05:13:15 21° NE 05:17:35 10° E
SeaSat 1 2.4 05:10:45 10° NNE 05:15:38 61° NW 05:17:13 40° WSW
Cosmos 1300 Rocket 3.3 05:11:48 10° SSW 05:16:06 70° WNW 05:20:26 10° N
COSMOS 2428 4.2 05:12:09 12° NNW 05:16:43 32° NE 05:21:48 10° ESE
Meteor 1-23 Rocket 4.1 05:14:16 32° NNW 05:16:44 59° W 05:22:09 10° S
CZ-4C R/B 2.3 05:12:11 14° SSW 05:16:47 77° SE 05:22:58 10° NE
Meteor 1-4 Rocket 3.0 05:14:18 10° S 05:18:03 65° E 05:21:50 10° NNE
Cosmos 1025 Rocket 2.8 05:17:10 33° NNW 05:19:04 87° W 05:23:21 10° S
Cosmos 2360 Rocket 2.6 05:16:27 19° NNW 05:20:30 61° ENE 05:26:06 10° SE
ERBS 4.2 05:20:52 21° NNE 05:20:52 21° NNE 05:23:12 10° ENE
Cosmos 1066 Rocket 4.5 05:15:20 10° N 05:20:41 64° ENE 05:26:02 10° SSE
Cosmos 1980 Rocket 3.6 05:23:40 21° SW 05:23:40 21° SW 05:26:18 10° SSW
Meteor 2-11 Rocket 4.4 05:18:52 10° N 05:25:01 87° W 05:31:06 10° S
NOAA 6 3.9 05:20:42 10° N 05:25:49 70° WNW 05:30:56 10° SSW
deb Kosmos-1763 4.2 05:24:48 10° SSW 05:28:32 75° ESE 05:32:16 10° NNE
Cosmos 1500 3.2 05:25:44 10° S 05:29:34 79° E 05:33:26 10° NNE
Cosmos 2219 Rocket 3.9 05:24:56 10° NNW 05:29:46 27° NE 05:34:34 10° ESE
CZ-2C R/B 2.5 05:25:36 10° NNE 05:30:31 77° ESE 05:35:14 10° S
COSMO-SKYMED 1 3.2 05:31:07 10° SSW 05:34:52 35° WSW 05:34:52 35° WSW
CZ-4 R/B 3.9 05:33:45 10° NE 05:37:14 25° E 05:40:45 10° SSE
Okean-O 2.7 05:33:23 10° N 05:37:44 54° WNW 05:42:03 10° SSW
Cosmos 2237 Rocket 4.1 05:41:13 10° N 05:45:36 22° NE 05:49:57 10° E
Cosmos 1184 Rocket 2.8 05:44:44 41° NW 05:45:36 57° W 05:48:52 10° S
Cosmos 773 Rocket 4.0 05:43:22 10° SW 05:48:25 58° WNW 05:53:34 10° NNE
Cosmos 1624 Rocket 4.5 05:44:38 10° NNW 05:49:58 62° ENE 05:55:15 10° SE
IDEFIX/ARIANE 42P 2.6 05:45:57 10° N 05:51:03 57° WNW 05:56:09 10° SSW
Okean 1 Rocket 3.2 05:47:11 10° SSW 05:51:26 48° WNW 05:55:45 10° N
BREEZE-M DEB (TANK) 3.8 05:49:51 13° SSW 05:51:45 37° SE 05:56:08 10° ENE
MSX 3.8 05:47:43 10° NNE 05:53:32 85° WNW 05:59:16 10° SSW
SJ-12 3.8 05:51:23 10° NNE 05:55:29 82° WNW 05:59:32 10° SSW
ATLAS 5 CENTAUR R/B 3.3 05:51:30 15° NNW 05:55:55 39° NE 06:01:47 10° ESE
Okean 2 4.0 05:55:11 25° NW 05:56:42 34° W 06:00:24 10° SSW
Cosmos 1680 Rocket 3.6 05:53:04 10° SSW 05:58:16 79° ESE 06:03:31 10° NNE
Celestis-02/Orion 38 4.5 05:53:14 10° SSE 05:58:19 87° WSW 06:03:05 12° NNW
USA 267 3.4 05:53:29 10° ENE 05:59:49 55° NNW 06:04:58 16° W
Meteor 1-12 Rocket 4.5 05:55:12 10° S 06:00:52 74° E 06:06:31 10° NNE
Cosmos 1666 3.4 05:58:07 10° S 06:01:52 56° E 06:05:37 10° NNE
SL-16 R/B 2.9 05:59:11 21° WNW 06:02:02 32° WSW 06:06:59 10° SSW
Cosmos 192 4.5 05:59:23 10° SW 06:04:08 49° WNW 06:08:56 10° NNE
Cosmos 1975 2.7 06:01:22 10° SSW 06:05:19 74° W 06:09:21 10° N
COSMOS 2441 4.3 06:00:56 10° N 06:05:46 67° WNW 06:10:32 10° SSW
MINOTAUR R/B 4.3 06:06:33 36° W 06:06:55 39° WNW 06:09:15 10° NNE
Cosmos 1892 Rocket 3.5 06:03:12 10° NNW 06:07:36 69° W 06:11:55 10° S
Cosmos 2322 Rocket 3.0 06:04:41 19° WNW 06:07:40 30° WSW 06:12:32 10° SSW
YAOGAN 1 4.3 06:03:51 10° NNE 06:07:51 35° E 06:11:50 10° SSE
Cosmos 389 Rocket 2.7 06:06:37 10° S 06:10:13 74° E 06:13:50 10° NNE
Cosmos 1371 Rocket 3.9 06:06:37 10° NNW 06:11:53 79° WSW 06:17:03 10° SSE
CSL-04 Rocket 4.0 06:07:46 10° NNE 06:13:22 76° ESE 06:18:54 10° S
Cosmos 2285 Rocket 4.0 06:07:30 10° SSW 06:13:50 81° WNW 06:20:10 10° NNE
BREEZE-M DEB (TANK) 2.8 06:12:16 15° WNW 06:18:01 59° SSW 06:20:30 10° SE
Cosmos 2237 4.2 06:12:33 10° NNW 06:18:17 78° WSW 06:23:57 10° SSE
Thor Agena Rocket 3.8 06:14:29 10° S 06:19:18 45° W 06:24:13 10° NNW
Cosmos 1238 Rocket 4.3 06:16:58 10° N 06:23:41 74° E 06:29:44 10° SSE
ATLAS CENTAUR R/B 3.3 06:20:41 10° S 06:23:56 30° ESE 06:27:11 10° ENE
SMAP 3.1 06:19:17 10° NNE 06:23:59 90° WSW 06:28:38 10° SSW
Cosmos 923 Rocket 4.2 06:24:54 10° SW 06:29:57 48° WNW 06:35:02 10° NNE
S3M 4.0 06:24:58 10° NNW 06:31:03 61° W 06:37:11 10° S
Cosmos 2322 3.9 06:25:42 10° NW 06:31:14 55° WSW 06:36:44 10° S
Cosmos 2082 Rocket 3.9 06:33:06 11° WNW 06:35:30 14° NNW 06:38:31 10° N
Cosmos 1602 Rocket 3.7 06:31:23 10° N 06:35:44 79° E 06:40:02 10° SSE
ALOS 3.8 06:32:49 10° NNE 06:37:16 41° E 06:41:41 10° SSE
Cosmos 1833 Rocket 4.4 06:37:41 10° NW 06:40:06 13° NNW 06:42:43 10° N
Cosmos 1833 4.1 06:34:34 10° SW 06:40:08 75° WNW 06:45:47 10° NNE
SL-16 R/B 4.0 06:36:18 10° NNW 06:40:55 24° NE 06:45:31 10° E
Cosmos 1484 Rocket 3.1 06:37:46 10° N 06:41:30 43° WNW 06:45:09 10° SW
Cosmos 1842 3.3 06:38:57 10° NNW 06:42:54 69° W 06:46:50 10° S
APEX 3.6 06:40:46 10° SW 06:44:17 47° NW 06:48:47 10° NNE
SWAS 4.4 06:41:07 10° SW 06:45:26 77° WNW 06:49:49 10° NNE
Cosmos 1743 3.2 06:42:34 10° SW 06:46:10 39° WNW 06:49:47 10° N
Cosmos 2112 Rocket 4.1 06:41:16 10° SW 06:46:19 52° WNW 06:51:26 10° NNE
Aureole 2 Rocket 2.4 06:43:05 10° NNW 06:46:29 59° WSW 06:49:35 10° S
Cosmos 1455 Rocket 3.2 06:43:46 10° SSW 06:48:07 53° WNW 06:52:31 10° N
Cosmos 2056 Rocket 3.8 06:44:18 10° NNW 06:49:13 49° WSW 06:54:09 10° S
Meteor 1-21 4.4 06:44:12 10° NNW 06:49:40 55° W 06:55:06 10° S
CORIOLIS 4.1 06:46:28 10° N 06:51:49 71° WNW 06:57:08 10° SSW
SeaSat 1 4.0 06:49:27 10° N 06:52:21 16° NW 06:55:14 10° WNW
Cosmos 1544 Rocket 3.9 06:48:07 10° SSW 06:52:23 44° WNW 06:56:40 10° N
Meteor 1-4 Rocket 4.4 06:51:50 10° W 06:53:37 13° WNW 06:55:25 10° NW
SPOT 3 Rocket 4.5 06:52:13 10° NNE 06:57:17 54° E 07:02:19 10° S
ERBS 3.1 06:54:30 10° NW 06:57:44 42° NNE 07:00:58 10° E
Cosmos 2333 Rocket 2.4 06:52:37 10° NNW 06:58:26 83° ENE 07:04:11 10° SSE
Cosmos 1340 Rocket 3.5 06:56:34 10° NNW 07:00:11 34° W 07:03:47 10° SSW
Cosmos 1655 Rocket 4.4 06:54:56 10° SW 07:00:46 40° WNW 07:06:41 10° N
COSMOS 2428 3.0 06:55:43 10° NW 07:01:18 56° WSW 07:06:53 10° S
Cosmos 1452 Rocket 3.6 06:56:32 10° NNW 07:01:51 88° WSW 07:07:09 10° SSE
